Location: Bishop�s Knoyle
(51.0728°N, 2.1714°W)
Time: 12:38:56
(UTC+00:00)

NOSS 3-4 (C) - Pass Details

Date: 17 January 2021
Orbit: 878 x 1335 km, 63.4° (Epoch: 16 February)

Event Time Altitude Azimuth Distance (km) Brightness Sun altitude
Rises 20:08:26 0° 280° (W) 3,559 7.5 -32.9°
Reaches altitude 10° 20:11:14 10° 292° (WNW) 2,665 6.6 -33.4°
Maximum altitude 20:16:37 29° 352° (N) 1,744 4.9 -34.2°
Enters shadow 20:16:40 29° 353° (N) 1,746 4.9 -34.2°
